Tracking 18852 objects as of 24-Nov-2017
HD Live streaming from Space Station
objects crossing your sky now

FENGYUN 1C DEB

Track FENGYUN 1C DEB now!
10-day predictions


NORAD ID: 31779
Int'l Code: 1999-025CGE
Perigee: 615.7 km
Apogee: 948.7 km
Inclination: 99.4 °
Period: 100.3 minutes
Semi major axis: 7153 km
RCS: 0.0178 m2 (small)
Launch date: May 10, 1999
Source: People's Republic of China (PRC)
Launch site: Taiyaun Space Center, China (TSC)

Note: This is SATELLITE DEBRIS
aabbcc
Your satellite tracking list
Your tracking list is empty




NASA's NSSDC Master Catalog

Two Line Element Set (TLE):
1 31779U 99025CGE 17327.19398579 +.00000286 +00000-0 +89331-4 0  9997
2 31779 099.3706 315.9808 0232806 094.3377 268.4443 14.35004013547739
Source of the keplerian elements: AFSPC